Regional Weather Roundup
Issued by NWS

Home | Current Version | Previous Version | Text Only | Print | Product List | Glossary Off
Versions: 1 2 3 4 5 6 7 8 9 10 11 12 13 14 15 16 17 18 19 20 21 22 23 24 25 26 27 28 29 30 31 32 33 34 35 36 37 38 39 40 41 42 43 44 45 46 47 48 49 50

000
ASUS43 KDMX 281407
RWRIA

WEATHER ROUNDUP FOR IOWA
NATIONAL WEATHER SERVICE DES MOINES IA
800 AM CST SUN DEC 28 2014

NOTE: "FAIR" INDICATES FEW OR NO CLOUDS BELOW 12,000 FEET WITH NO
SIGNIFICANT WEATHER AND/OR OBSTRUCTIONS TO VISIBILITY.

* - THESE STATIONS ARE NOT NWS STATIONS...THUS NOT UNDER NWS
QUALITY CONTROL.  THEY ALSO DO NOT REPORT WEATHER SUCH
AS PRECIPITATION OR FOG.

IAZ001>003-012>014-020>022-031>034-043>046-281500-
   NORTHWEST IOWA

CITY           SKY/WX    TMP DP  RH WIND       PRES   REMARKS
CARROLL *      CLEAR     14  10  85 W5        30.13R WCI   6
CHEROKEE *     PTCLDY     5   3  92 CALM      30.12R
DENISON *      CLEAR     12  10  92 CALM      30.10S
LE MARS *      CLEAR      1   0  92 CALM      30.13R
ORANGE CITY *  CLEAR      7   3  85 CALM      30.09R FOG
SHELDON *      CLEAR      0  -4  85 NE3       30.09R
SIOUX CITY     PTCLDY     6   2  83 E3        30.13R
SPENCER        CLEAR      4   0  83 CALM      30.11R
STORM LAKE *   CLEAR      9   7  92 W5        30.10R WCI   0
$$

IAZ055>058-069>071-079>083-090>094-281500-
   SOUTHWEST IOWA

CITY           SKY/WX    TMP DP  RH WIND       PRES   REMARKS
ATLANTIC *     CLEAR     14  12  92 SW5       30.13S WCI   6
AUDUBON *      CLEAR     16   9  73 CALM      30.12R
CLARINDA *     CLEAR     14  12  92 S6        30.19R WCI   5
COUNCIL BLFS * CLEAR     16  16 100 SW5       30.12S WCI   9
CRESTON *        N/A     14  12  92 S8        30.14R WCI   3
HARLAN  *      CLEAR     12  14 100 S5        30.16S WCI   4
LAMONI         CLEAR     16  13  88 S9        30.16R WCI   4
RED OAK *      CLEAR     16  14  93 CALM      30.16R
SHENANDOAH *   CLEAR     16  14  93 SW5       30.17S WCI   9
$$

IAZ047>049-059>061-072>074-084-281500-
   CENTRAL IOWA

CITY           SKY/WX    TMP DP  RH WIND       PRES   REMARKS
AMES           CLEAR     13  10  88 S3        30.14F
ANKENY *       CLEAR     14  12  92 S3        30.15S
CHARITON *     CLEAR     14  12  92 S7        30.17R WCI   4
DES MOINES     PTCLDY    16  11  80 S7        30.15F WCI   6
GRINNELL*      CLEAR     16  14  93 SW5       30.16R WCI   9
KNOXVILLE *    CLEAR     14  10  85 S6        30.16R WCI   5
MARSHALLTOWN   CLEAR     13  11  92 S3        30.14S
PELLA *        CLEAR     16  14  93 S5        30.19R WCI   9
PERRY *          N/A     14  12  92 CALM      30.14R
$$

IAZ004>006-015-016-023>025-035-036-281500-
   NORTH CENTRAL IOWA

CITY           SKY/WX    TMP DP  RH WIND       PRES   REMARKS
ALGONA *       CLEAR      7   3  85 S6        30.12R WCI  -3
CLARION *      CLEAR      9   9 100 S6        30.12S WCI  -1
ESTHERVILLE    CLEAR      6   3  87 W7        30.09R WCI  -6
FORT DODGE *   CLEAR      9   3  78 S3        30.13R
MASON CITY     CLEAR      5   2  87 S5        30.13R WCI  -4
FOREST CITY *  CLEAR      9   3  78 CALM      30.11R
IOWA FALLS *     N/A     14  12  92 S5        30.13S WCI   6
$$

IAZ007>011-017>019-026>030-037>042-050>054-066-281500-
   NORTHEAST IOWA

CITY           SKY/WX    TMP DP  RH WIND       PRES   REMARKS
CEDAR RAPIDS   CLEAR     11  10  96 SW3       30.17R
CHARLES CITY * CLEAR     10   7  85 S5        30.14R WCI   2
CLINTON *      PTCLDY    14  10  85 W5        30.22R WCI   6
DECORAH *      CLEAR     14  10  85 CALM      30.12R
DUBUQUE        CLEAR     13  10  88 SW7       30.15R WCI   3
MONTICELLO *   CLEAR     14  12  92 CALM      30.18R
OELWEIN *      CLEAR     12  10  92 S3        30.14S
WATERLOO       CLEAR     12   9  87 CALM      30.15S
$$

IAZ064-065-067-068-078-281500-
   EAST CENTRAL IOWA

CITY           SKY/WX    TMP DP  RH WIND       PRES   REMARKS
DAVENPORT      PTCLDY    17  12  80 W7        30.20R WCI   8
IOWA CITY      CLEAR     16  12  84 CALM      30.21R
MT. PLEASANT * PTCLDY    19  19 100 SW3       30.21R
MUSCATINE *    CLEAR     18  14  86 S3        30.22S
QUAD CITIES    PTCLDY    18  14  84 SW5       30.21R WCI  11
$$

IAZ062-063-075>077-085>089-095>099-281500-
   SOUTHEAST IOWA

CITY           SKY/WX    TMP DP  RH WIND       PRES   REMARKS
BURLINGTON     MOCLDY    23  20  88 CALM      30.20S
FAIRFIELD *    CLEAR     18  16  93 SW3       30.20S
FORT MADISON * CLEAR     25  21  86 SW3       30.22R
KEOKUK *       CLEAR     23  21  93 W3        30.21S
OSKALOOSA *      N/A     16  14  93 SW6       30.19S WCI   7
CENTERVILLE *  CLEAR     16  16 100 S5        30.20S WCI   9
OTTUMWA        CLEAR     14  12  92 S5        30.19R WCI   6
WASHINGTON *   CLEAR     16  16 100 S6        30.20S WCI   7
$$

ABBREVIATIONS USED IN REMARKS
   TC - TEMPERATURES IN CELSIUS
  WCI - WIND CHILL INDEX
   HX - HEAT INDEX
  VSB - VISIBILITY
$$



USA.gov is the U.S. government's official web portal to all federal, state and local government web resources and services.